Find Starlink 33983

NORAD ID: 63948 Int'l Des: 2025-098 Owner: SPXS Country: US Constellation: starlink operational
LEOCIRCULAR

Live Position

Loading 3D Globe...

About Starlink 33983

Description loading...

Upcoming Passes

Passes for default location (London). Set your location on the main map for personalized predictions.

Altitude History

Loading altitude history...

Two-Line Element Set

1 63948U 25098Y 26106.61219359 .00231479 00000-0 18317-1 0 9992
2 63948 70.0010 178.8083 0003771 285.3322 74.7421 14.99283071 52239
Epoch: Apr 16, 2026 • Age: 18 hours

Current Status

Altitude 571.4 km
Velocity 7.58 km/s
Sub-Earth Point 18.90°N, 9.03°E
Launch Date May 13, 2025
Age 0.9 years
Type internet

Technical Details

Classification Payload
Mass 575.00 kg
Dry Mass 530.00 kg
Total Mass 575.00 kg
Length 0.30 m
Diameter 4.10 m
Span 29.00 m
Shape Box + pan
Manufacturer SPXS
Bus Type Starlink V2MO
Phase Status In Orbit
Owner/State SPXS/US

Most Searched